User: anonymous
Location: Camp Creek
(33.9000°N, 111.8167°W)
Time: 06:35:25
(UTC-07:00)
Language:

Cosmos 1656 - Orbit

View from above orbital plane
View from above orbital plane
View from above satellite
View from above satellite

Ground track
Ground track

The orbit data is extracted from the following two-line orbital elements,

1 15755U 85042A   14107.94273453  .00000036  00000-0  38591-4 0  7304
2 15755 071.1120 279.0853 0034073 044.3834 316.0014 14.20284182496516
Epoch (UTC): 17 April 2014 22:37:32
Eccentricity: 0.0034073
inclination: 71.1120°
perigee height: 800 km
apogee height: 849 km
right ascension of ascending node: 279.0853°
argument of perigee: 44.3834°
revolutions per day: 14.20284182
mean anomaly at epoch: 316.0014°
orbit number at epoch: 49651

The dashed part of the orbit path shows where the satellite is in the earth's shadow,  

DLR